GEESAT 3-02

导读

GEESAT 3-02是中国吉利旗下Geespace公司GEESATCOM低轨卫星通信星座的成员,于2024年9月5日发射,是该星座第三轨道平面部署的10颗卫星之一。它为GEESATCOM实现全球90%区域24小时不间断覆盖提供支撑,助力中国首个面向全球商用的低轨通信星座建设,目标提供全球实时数据通信服务,服务全球超2亿中低速卫星互联用户。

Basic Information
目录编号:
61012
目录名称:
GEESAT 3-02
国际标识:
2024-159B
轨道中心:
EARTH
卫星名称:
GEESAT 3-02
卫星全名:
GEESAT 3-02
卫星状态:
在轨 (已飞行736 天)
发射日期:
2024-09-05 UTC
国别 :
中国 (CN)
星等 :
--
This satellite is enrolled in the Space Conjunction Data Service (SCDS) and the current flight risk assessment level is: No High Risk
Orbit Information
数据来源 国际轨道数据 AOE轨道数据
星历时间 2026-09-11T13:40:06+0800
8小时前
查看轨道信息
2026-09-07T02:00:00+0800
4天前
查看轨道信息
半长轴 6993.321km 6993.335km
偏心率 0.00185 0.0018323
轨道倾角 49.995° 49.993°
近地点辐角 27.814° 12.670°
升交点赤经 44.069° 64.889°
平近点角 332.378° 115.509°
近地点 602.246km 602.384km
远地点 628.122km 628.012km
周期 97.003分钟 97.003分钟
每日圈数 14.844912 14.844868
Detailed Information
使用方式:
暂无
2D Orbit Map
3D Orbit Map
Orbit Altitude Analysis Chart
Orbit Inclination Analysis Chart
Orbit Comprehensive Analysis Chart
View Comprehensive Chart
Conjunction Data List
Event ID Objects TCA Miss Dist (km) Collision Risk Probability Collision Risk Index (CRI) Action
CDM_260911-082403-366306-101224
2026-09-11T
08:24:25+0000
2.225 km
极远距离
2.082873E-6 低风险 0.41
CDM_260913-042701-327206-101223
2026-09-13T
04:27:17+0000
2.864 km
极远距离
1.363151E-6 低风险 0.38
CDM_260911-224806-101206-978422
2026-09-11T
22:48:27+0000
2.622 km
极远距离
1.319586E-6 低风险 0.37
CDM_260905-214903-872206-101223
2026-09-05T
21:49:38+0000
2.393 km
极远距离
1.305575E-6 低风险 0.37
Miss Distance Evolution Trend with All Objects
Collision Probability Evolution Trend with All Objects